www.pogodaiklimat.ru

Погода и климат >> Архив погоды >> Австралия >> Birdsville Airport


ПОГОДА в Birdsville Airport

  • Прогноз погоды в Birdsville Airport
  • Монитор погоды в Birdsville Airport
  • Климат города

АРХИВ ПОГОДЫ в Birdsville Airport

Время (UTC), дата Ветер
(напр.,м/с)
 
Видим.   Явления Облачность Т
(С)
Тd
(С)
f
(%)
Тe
(С)
Тes
(С)
Комфортность P
(гПа)
Po
(гПа)
Тmin
(С)
Tmax
(С)
R
(мм)
R24
(мм)
S
(см)
20 18.04 Ю 3 н/о н/о +19.2 +7.3 46 +20 +20 1013.8 1008.4
21 18.04 Ю 3 н/о н/о +18.8 +6.6 45 +19 +19 1014.2 1008.8
23 18.04 ЮВ 4 н/о н/о +23.8 +7.4 35 +24 +24 комфорт 1015.2 1009.8
00 19.04 ЮВ 3 н/о н/о +26.8 +7.8 30 +27 +27 жарко 1015.4 1010.0
02 19.04 Ю 2 н/о н/о +32.0 +8.3 23 +31 +31 жарко 1014.2 1008.8 +18.7
03 19.04 ЮЗ 2 н/о н/о +33.1 +6.4 19 +31 +31 жарко 1013.4 1008.0
05 19.04 Ю 5 н/о н/о +34.1 +6.4 18 +32 +32 жарко 1012.4 1007.0
06 19.04 ЮЗ 6 н/о н/о +34.2 +5.7 17 +32 +32 жарко 1012.2 1006.8
08 19.04 Ю 4 н/о н/о +32.8 +6.2 19 +31 +31 жарко 1012.5 1007.1
09 19.04 ЮЗ 4 н/о н/о +30.0 +4.6 20 +28 +28 жарко 1012.8 1007.4
11 19.04 ЮЗ 3 н/о н/о +25.7 +2.4 22 +24 +24 комфорт 1013.7 1008.3
12 19.04 Ю 3 н/о н/о +25.1 +4.3 26 +24 +24 комфорт 1014.1 1008.7
14 19.04 ЮЗ 4 н/о н/о +23.3 +4.3 29 +23 +23 комфорт 1014.4 1009.0 +35.3
15 19.04 ЮЗ 4 н/о н/о +22.0 +3.6 30 +22 +22 комфорт 1014.4 1009.0
17 19.04 Ю 3 н/о н/о +21.4 +5.7 36 +22 +22 комфорт 1014.1 1008.7
18 19.04 ЮВ 5 н/о н/о +21.6 +5.1 34 +22 +22 комфорт 1013.7 1008.3
20 19.04 Ю 4 н/о н/о +20.7 +5.1 36 +22 +22 комфорт 1014.1 1008.7
21 19.04 ЮВ 3 н/о н/о +20.0 +5.3 38 +21 +21 комфорт 1014.5 1009.1
23 19.04 ЮВ 5 н/о н/о +24.8 +7.0 32 +25 +25 комфорт 1015.4 1010.0
00 20.04 ЮВ 3 н/о н/о +27.5 +8.4 30 +27 +27 жарко 1015.7 1010.3
02 20.04 В 3 н/о н/о +33.4 +10.1 24 +33 +33 жарко 1014.3 1008.9 +20.0
03 20.04 ЮВ 4 н/о н/о +34.8 +7.0 18 +33 +33 жарко 1013.5 1008.1
05 20.04 Ю 4 н/о н/о +35.8 +4.2 14 +33 +33 жарко 1012.2 1006.8
06 20.04 Ю 4 н/о н/о +35.7 +4.1 14 +33 +33 жарко 1012.2 1006.8
08 20.04 Ю 5 н/о н/о +34.3 +5.8 17 +32 +32 жарко 1012.7 1007.3
09 20.04 Ю 5 н/о н/о +31.9 +7.5 22 +31 +31 жарко 1013.5 1008.1
11 20.04 Ю 5 н/о н/о +28.8 +6.2 24 +28 +28 жарко 1014.7 1009.3
12 20.04 Ю 5 н/о н/о +28.2 +8.0 28 +28 +28 жарко 1015.3 1009.9
14 20.04 ЮВ 4 н/о н/о +25.3 +4.4 26 +25 +25 комфорт 1015.3 1009.9 +36.8
15 20.04 Ю 4 н/о н/о +24.8 +4.0 26 +24 +24 комфорт 1015.1 1009.7
17 20.04 ЮВ 4 н/о н/о +23.3 +4.3 29 +23 +23 комфорт 1014.6 1009.2
18 20.04 ЮВ 4 н/о н/о +22.2 +3.8 30 +22 +22 комфорт 1014.6 1009.2
20 20.04 ЮВ 4 н/о н/о +21.4 +4.5 33 +22 +22 комфорт 1014.8 1009.4
21 20.04 Ю 4 н/о н/о +20.9 +4.0 33 +22 +22 комфорт 1015.6 1010.2
23 20.04 ЮВ 4 н/о н/о +25.2 +6.4 30 +25 +25 комфорт 1016.9 1011.5
00 21.04 ЮВ 4 н/о н/о +28.7 +9.4 30 +29 +29 жарко 1017.1 1011.7
02 21.04 В 3 н/о н/о +32.9 +12.5 29 +33 +33 жарко 1016.2 1010.8 +20.8
03 21.04 Ю 7 н/о н/о +34.1 +10.0 23 +33 +33 жарко 1015.0 1009.6
05 21.04 ЮВ 5 н/о н/о +35.2 +8.9 20 +34 +34 очень
жарко
1013.7 1008.3
06 21.04 Ю 6 н/о н/о +34.8 +7.0 18 +33 +33 жарко 1013.5 1008.1
08 21.04 Ю 7 н/о н/о +33.3 +4.1 16 +31 +31 жарко 1013.5 1008.1
09 21.04 Ю 6 н/о н/о +31.4 +4.2 18 +29 +29 жарко 1014.1 1008.7
11 21.04 Ю 5 н/о н/о +28.5 +6.6 25 +28 +28 жарко 1015.8 1010.4
12 21.04 Ю 4 н/о н/о +27.0 +5.3 25 +26 +26 жарко 1016.0 1010.6
14 21.04 ЮВ 4 н/о н/о +25.2 +6.9 31 +25 +25 комфорт 1016.0 1010.6 +35.9
15 21.04 Ю 3 н/о н/о +24.2 +7.4 34 +24 +24 комфорт 1015.9 1010.5
17 21.04 ЮВ 2 н/о н/о +22.4 +7.0 37 +23 +23 комфорт 1015.7 1010.3
18 21.04 ЮВ 2 н/о н/о +21.9 +7.3 39 +23 +23 комфорт 1015.6 1010.2
20 21.04 Ю 3 н/о н/о +19.8 +5.8 40 +21 +21 комфорт 1016.5 1011.1
21 21.04 Ю 3 н/о н/о +20.2 +6.5 41 +21 +21 комфорт 1017.1 1011.7
23 21.04 ЮВ 3 н/о н/о +24.7 +7.8 34 +25 +25 комфорт 1018.2 1012.7
00 22.04 В 4 н/о н/о +28.9 +9.6 30 +29 +29 жарко 1018.4 1012.9
02 22.04 В 6 н/о н/о +32.6 +9.4 24 +32 +32 жарко 1017.3 1011.9 +19.9
03 22.04 В 4 н/о н/о +33.1 +8.5 22 +32 +32 жарко 1016.3 1010.9
05 22.04 ЮВ 7 н/о н/о +33.7 +6.9 19 +32 +32 жарко 1014.7 1009.3
06 22.04 Ю 7 н/о н/о +33.6 +6.8 19 +32 +32 жарко 1014.4 1009.0
08 22.04 ЮВ 5 н/о н/о +32.2 +7.1 21 +31 +31 жарко 1014.9 1009.5
09 22.04 ЮВ 4 н/о н/о +30.4 +7.6 24 +29 +29 жарко 1015.5 1010.1
11 22.04 ЮВ 3 н/о н/о +26.9 +6.3 27 +26 +26 жарко 1016.8 1011.4
12 22.04 Ю 3 н/о н/о +26.3 +6.4 28 +26 +26 жарко 1017.3 1011.9
14 22.04 Ю 4 н/о н/о +24.9 +5.7 29 +25 +25 комфорт 1017.0 1011.6 +34.8
15 22.04 Ю 3 н/о н/о +23.7 +5.1 30 +24 +24 комфорт 1016.5 1011.1
17 22.04 Ю 2 н/о н/о +21.0 +4.6 34 +22 +22 комфорт 1015.6 1010.2
18 22.04 ЮВ 3 н/о н/о +21.4 +4.5 33 +22 +22 комфорт 1015.4 1010.0
20 22.04 ЮВ 3 н/о н/о +20.3 +5.1 37 +21 +21 комфорт 1015.7 1010.3
21 22.04 ЮВ 2 н/о н/о +19.8 +5.8 40 +21 +21 комфорт 1016.2 1010.8
23 22.04 ЮВ 2 н/о н/о +25.0 +8.1 34 +25 +25 комфорт 1018.0 1012.5
00 23.04 В 3 н/о н/о +27.5 +8.9 31 +28 +28 жарко 1018.3 1012.8
02 23.04 СВ 4 н/о н/о +32.0 +6.2 20 +30 +30 жарко 1017.3 1011.9 +19.5
03 23.04 С 3 н/о н/о +32.4 +5.1 18 +30 +30 жарко 1016.3 1010.9
05 23.04 ЮВ 3 н/о н/о +33.3 +5.8 18 +31 +31 жарко 1014.8 1009.4
06 23.04 ЮВ 3 н/о н/о +33.4 +5.0 17 +31 +31 жарко 1014.3 1008.9
08 23.04 Ю 4 н/о н/о +32.0 +4.7 18 +30 +30 жарко 1014.7 1009.3
09 23.04 Ю 3 н/о н/о +30.0 +5.3 21 +28 +28 жарко 1015.1 1009.7
11 23.04 Ю 3 н/о н/о +26.1 +5.1 26 +25 +25 комфорт 1016.3 1010.9
12 23.04 В 3 н/о н/о +25.7 +5.8 28 +25 +25 комфорт 1016.7 1011.3
14 23.04 штиль 0 н/о н/о +23.3 +4.3 29 +23 +23 комфорт 1016.1 1010.7 +34.2
15 23.04 ЮВ 2 н/о н/о +21.9 +4.9 33 +22 +22 комфорт 1015.7 1010.3
17 23.04 ЮВ 1 н/о н/о +20.5 +5.3 37 +23 +23 комфорт 1015.0 1009.6
18 23.04 штиль 0 н/о н/о +19.0 +2.4 33 +19 +19 1015.0 1009.6
20 23.04 Ю 2 н/о н/о +18.1 +4.3 40 +19 +19 1015.8 1010.4
21 23.04 Ю 2 н/о н/о +18.2 +4.7 41 +19 +19 1016.3 1010.9
23 23.04 штиль 0 н/о н/о +25.5 +6.2 29 +25 +25 комфорт 1018.0 1012.5
00 24.04 В 4 н/о н/о +27.9 +6.1 25 +27 +27 жарко 1017.9 1012.4
02 24.04 СВ 4 н/о н/о +31.8 +4.6 18 +30 +30 жарко 1016.5 1011.1 +17.5
03 24.04 В 3 н/о н/о +31.9 +3.0 16 +29 +29 жарко 1015.5 1010.1
05 24.04 В 3 н/о н/о +32.5 +3.5 16 +30 +30 жарко 1014.0 1008.6
06 24.04 ЮЗ 3 н/о н/о +32.9 +2.9 15 +30 +30 жарко 1013.7 1008.3
08 24.04 ЮЗ 3 н/о н/о +31.6 +3.6 17 +29 +29 жарко 1013.7 1008.3
09 24.04 Ю 4 н/о н/о +29.6 +2.8 18 +27 +27 жарко 1014.3 1008.9
11 24.04 Ю 2 н/о н/о +26.6 +2.5 21 +25 +25 комфорт 1015.1 1009.7
12 24.04 Ю 2 н/о н/о +26.4 +2.3 21 +25 +25 комфорт 1014.9 1009.5
14 24.04 ЮЗ 3 н/о н/о +23.4 +0.5 22 +22 +22 комфорт 1014.6 1009.2 +34.0
15 24.04 ЮЗ 2 н/о н/о +23.3 +2.2 25 +23 +23 комфорт 1014.3 1008.9
17 24.04 Ю 3 н/о н/о +21.7 +1.4 26 +21 +21 комфорт 1013.5 1008.1
18 24.04 Ю 2 н/о н/о +20.3 +1.7 29 +21 +21 комфорт 1013.2 1007.8
20 24.04 ЮВ 2 н/о н/о +18.6 +0.7 30 +19 +19 1013.7 1008.3
21 24.04 В 2 н/о н/о +17.9 +1.0 32 +19 +19 1014.1 1008.7
23 24.04 ЮВ 2 н/о н/о +24.1 +5.0 29 +24 +24 комфорт 1015.3 1009.9
00 25.04 В 3 н/о н/о +26.7 +5.1 25 +26 +26 жарко 1015.4 1010.0
02 25.04 В 3 н/о н/о +31.8 +2.0 15 +29 +29 жарко 1014.1 1008.7 +17.5
03 25.04 В 2 н/о н/о +32.7 +1.7 14 +30 +30 жарко 1013.2 1007.8
05 25.04 ЮВ 4 н/о н/о +32.7 +0.7 13 +30 +30 жарко 1012.0 1006.6
06 25.04 Ю 4 н/о н/о +32.9 +0.9 13 +30 +30 жарко 1011.8 1006.4
08 25.04 Ю 3 н/о н/о +31.8 +2.0 15 +29 +29 жарко 1012.2 1006.8
09 25.04 Ю 3 н/о н/о +29.0 +0.7 16 +27 +27 жарко 1012.7 1007.3
11 25.04 ЮВ 2 н/о н/о +25.0 +1.8 22 +24 +24 комфорт 1013.9 1008.5
12 25.04 В 3 н/о н/о +24.9 +3.0 24 +24 +24 комфорт 1014.4 1009.0
14 25.04 Ю 2 н/о н/о +21.6 +1.8 27 +21 +21 комфорт 1014.4 1009.0 +33.9
15 25.04 ЮВ 3 н/о н/о +21.7 +2.4 28 +22 +22 комфорт 1014.3 1008.9
17 25.04 Ю 2 н/о н/о +19.1 +0.2 28 +20 +20 1014.1 1008.7
18 25.04 Ю 2 н/о н/о +18.7 +1.2 31 +19 +19 1014.3 1008.9

 

Местоположение метеостанции Birdsville Airport (Квинсленд, Австралия): широта -25.90 долгота 139.35 высота над уровнем моря 47 м.

В архиве по умолчанию представлена погода в Birdsville Airport за последнюю неделю. Архивные данные за месяц целиком и за предыдущие месяцы, начиная с января 2011 года, Вы можете получить, выбрав интересующий диапазон дат из раскрывающегося списка и нажав кнопку "Ввод!".


*Определитесь, кто Вы:
робот инопланетянин человек

Внимание! Время в таблицах - всемирное. Для получения местного времени необходимо прибавить поправку, которая в Birdsville Airport равна 10 ч.

Смотрите также архив погоды в соседних городах и на ближайших метеорологических станциях:

Погода в Moomba Airport (Южная Австралия, Австралия) (259 км)
Погода в Ballera Gas Field (Квинсленд, Австралия) (298 км)
Погода в Oodnadatta Airport (Южная Австралия, Австралия) (429 км)
Погода в Marree Aero (Южная Австралия, Австралия) (437 км)
Погода в Phosphate Hill Airport (Квинсленд, Австралия) (460 км)
Погода в Jervois (Северная территория, Австралия) (461 км)
Погода в Tibooburra Airport (Новый Южный Уэльс, Австралия) (476 км)
Погода в Trepell Airport (Квинсленд, Австралия) (479 км)
Погода в Thargomindah Airport (Квинсленд, Австралия) (499 км)
Погода в Leigh Creek Airport (Южная Австралия, Австралия) (531 км)

Пояснения к столбцам:

Ветер - указаны скорость ветра в м/с - средняя за 10 мин, порывы в срок и между сроками (в фигурных скобках) и направление, откуда дует ветер: С - северный, СВ - северо-восточный, В - восточный, ЮВ - юго-восточный, Ю - южный, ЮЗ - юго-западный, З - западный, СЗ - северо-западный.
Видимость - горизонтальная дальность видимости в метрах или километрах. При видимости от 1 до 10 км при отсутствии осадков обычно наблюдается дымка, при ухудшении видимости до 1 км и менее - туман. В сухую погоду видимость может ухудшаться дымом, пылью или мглою.
Явления - указаны атмосферные явления, наблюдавшиеся в срок или в последний час перед сроком; фигурными скобками обозначены явления, наблюдавшиеся между сроками (за 1-3 часа до срока); квадратными скобками обозначены град или гололедные отложения с указанием их диаметра в мм.
Облачность - указаны через наклонную черту общая и нижняя облачность в баллах и высота нижней границы облаков в метрах; квадратными скобками обозначены формы облаков: Ci - перистые, Cs - перисто-слоистые, Cc - перисто-кучевые, Ac - высококучевые, As - высокослоистые, Sc - слоисто-кучевые, Ns - слоисто-дождевые, Cu - кучевые, Cb - кучево-дождевые. Подробнее классификацию облаков см. в Атласе облаков (PDF).
T - Температура воздуха - температура, измеренная на высоте 2 м над землей.
Td - Температура точки росы - температура, при понижении до которой содержащийся в воздухе водяной пар достигнет насыщения.
f - Относительная влажность воздуха - влажноcть воздуха, измеренная на высоте 2 м над землей.
Te - Эффективная температура - температура, которую ощущает одетый по сезону человек в тени. Характеристика душности погоды. При расчете учитывается влияние влажности воздуха и скорости ветра на теплоощущения человека.
Tes - Эффективная температура на солнце - температура, которую ощущает человек, с поправкой на солнечный нагрев. Характеристика знойности погоды. Зависит от высоты солнца над горизонтом, облачности и скорости ветра. Ночью, в пасмурную погоду, а также при ветре 12 м/с и более поправка равна нулю.
P - Атмосферное давление - приведенное к уровню моря атмосферное давление.
Po - Атмосферное давление - измеренное на уровне метеостанции атмосферное давление.
Tmin - Минимальная температура - минимум температуры воздуха на высоте 2 м над землей.
Tmax - Максимальная температура - максимум температуры воздуха на высоте 2 м над землей.
R - Количество осадков - Количество выпавших осадков за период времени, мм. При наведении курсора мыши на число - период времени, за который выпало указанное количество осадков.
R24 - Количество осадков - Количество выпавших осадков за 24 часа, мм.
S - Снежный покров - Высота снежного покрова, см. При наведении курсора мыши на число - состояние снежного покрова и степень покрытия местности в баллах.